Weather in Mtskheta

Georgia     41°50′42″N   44°42′55″E
temp.,
°C
wind,
m/s
gust,
m/s
humid.,
%
clouds,
%
prec.,
mm/h
press.,
hPa
HPBL,
m
25 june, sat
sat2501:00+15nw359399 0.4 1012234
04:00+15nnw239298 1.3 1011144
07:00+15nnw229399 0.8 1011123
10:00+19se018012 1.5 1010401
13:00+25se3449100 0.0 10091461
16:00+23sw5663100 0.6 10091028
19:00+20nnw3481100 2.3 1009278
22:00+18nnw2287100 2.9 100950
26 june, sun
sun2601:00+16nw2391100 0.6 100992
04:00+16nw2295100 2.6 100879
07:00+16nnw2393100 3.1 1009180
10:00+18nw1183100 4.9 1008252
13:00+20nnw128190 3.2 1008585
16:00+20nw1186100 5.6 1006172
19:00+17nnw5988100 1.4 1009471
22:00+15nnw489296 1.8 1011349
27 june, mon
mon2701:00+14nw49925 0.0 1011362
04:00+14nw489378 0.0 1011300
07:00+15nw48875 0.0 1010324
10:00+21nnw46600 0.0 1009540
13:00+27nnw22410 0.0 1007724
16:00+30n12370 0.3 10041363
19:00+21nw597699 0.9 1008396
22:00+17nw489396 6.0 1011270
28 june, tue
tue2801:00+16nw46945 3.9 1011207
04:00+16nw35944 4.9 1010142
07:00+16nw35900 0.0 1010167
10:00+23nnw33624 0.0 1009425
13:00+29nnw22420 0.0 1007913
16:00+31nnw22330 0.0 10051713
19:00+21nw711772 0.8 1009512
22:00+18nw599299 3.6 1010344
29 june, wed
wed2901:00+17n35964 2.5 1011240
04:00+16nw35969 4.0 1012167
07:00+17nnw23915 0.1 1012157
10:00+23n11665 0.3 1011537
13:00+27sse365036 0.0 10091635
16:00+29sse464621 0.0 10071887
19:00+27sse465386 0.1 10071211
22:00+22nw22744 1.2 100946